Satellite: CP6
Catalog number: 35004
Epoch time:      10027.92362564
Element set:    0193
Inclination:      040.4625 deg
RA of node:       331.9701 deg
Eccentricity:    0.0024021
Arg of perigee:   042.9026 deg
Mean anomaly:     317.3626 deg
Mean motion:   15.42607149 rev/day
Decay rate:      9.616e-05 rev/day^2
Epoch rev:           03902
Checksum:              266

Satellite: AEROCUB3
Catalog number: 35005
Epoch time:      10028.20880361
Element set:     201
Inclination:      040.4729 deg
RA of node:       330.8899 deg
Eccentricity:    0.0022673
Arg of perigee:   042.2065 deg
Mean anomaly:     318.0499 deg
Mean motion:   15.42973391 rev/day
Decay rate:     1.7477e-04 rev/day^2
Epoch rev:            3906
Checksum:              292

Satellite: DRAGNSAT
Catalog number: 35690
Epoch time:      10028.77268253
Element set:     214
Inclination:      051.6343 deg
RA of node:       211.2163 deg
Eccentricity:    0.0001767
Arg of perigee:   118.6834 deg
Mean anomaly:     241.4356 deg
Mean motion:   15.96390698 rev/day
Decay rate:     8.8953e-04 rev/day^2
Epoch rev:            2893
Checksum:              314

Satellite: POLLUX
Catalog number: 35693
Epoch time:      10028.52202965
Element set:     202
Inclination:      051.6332 deg
RA of node:       214.0884 deg
Eccentricity:    0.0000484
Arg of perigee:   335.4735 deg
Mean anomaly:     024.6776 deg
Mean motion:   15.93806409 rev/day
Decay rate:     7.5089e-04 rev/day^2
Epoch rev:            2884
Checksum:              300

Satellite: CASTOR
Catalog number: 35694
Epoch time:      10028.52153948
Element set:     171
Inclination:      051.6366 deg
RA of node:       217.9539 deg
Eccentricity:    0.0002563
Arg of perigee:   018.7269 deg
Mean anomaly:     341.4362 deg
Mean motion:   15.86114843 rev/day
Decay rate:     2.4904e-04 rev/day^2
Epoch rev:            2879
Checksum:              312

Satellite: METEOR-M
Catalog number: 35865
Epoch time:      10028.65757868
Element set:     113
Inclination:      098.7796 deg
RA of node:       083.3242 deg
Eccentricity:    0.0003136
Arg of perigee:   054.2388 deg
Mean anomaly:     305.9035 deg
Mean motion:   14.21828546 rev/day
Decay rate:       1.76e-06 rev/day^2
Epoch rev:            1889
Checksum:              322

Satellite: RS-38
Catalog number: 35869
Epoch time:      10028.78446769
Element set:     116
Inclination:      098.7760 deg
RA of node:       083.4714 deg
Eccentricity:    0.0005185
Arg of perigee:   056.3372 deg
Mean anomaly:     303.7677 deg
Mean motion:   14.21971801 rev/day
Decay rate:       1.76e-06 rev/day^2
Epoch rev:            1891
Checksum:              331

/EX


_______________________________________________
Via the Keps mailing list courtesy of AMSAT-NA
http://amsat.org/mailman/listinfo/keps

--- ViaMAIL!/WC v1.60d
 * Origin: Chowdanet (401-724-4410) telnet://chowdanet.com  (1:323/120)